EW4210 Weather Reports


time (UTC)temp
C
wind
direction
speed
KPH
gust
KPH
rain 1hr
cm
rain 24hr
cm
rain mn
cm
humidity
%
barometer
mb
20260505034548 20 119 0.0 0.0 0.00 0.00 0.00 69 1007.8
20260505033028 20 119 0.0 0.0 0.00 0.00 0.00 67 1007.9
20260505031535 20 119 0.0 0.0 0.00 0.00 0.00 64 1007.9
20260505030100 21 119 0.0 0.0 0.00 0.00 0.00 63 1007.6
20260505024541 21 119 0.0 1.6 0.00 0.00 0.00 61 1007.6
20260505023028 21 44 0.0 4.8 0.00 0.00 0.00 60 1007.3
20260505021504 21 150 1.6 4.8 0.00 0.00 0.00 59 1007.2
20260505020042 21 183 0.0 3.2 0.00 0.00 0.00 59 1007.0
20260505014526 22 153 1.6 4.8 0.00 0.00 0.00 59 1007.0
20260505013006 22 61 0.0 3.2 0.00 0.00 0.00 59 1006.7
20260505011551 22 282 0.0 1.6 0.00 0.00 0.00 58 1006.7
20260505010032 22 271 1.6 4.8 0.00 0.00 0.00 57 1006.7
20260505004533 22 244 0.0 3.2 0.00 0.00 0.00 56 1006.7
20260505003050 23 202 0.0 3.2 0.00 0.00 0.00 56 1006.6
20260505001538 23 269 0.0 3.2 0.00 0.00 0.00 55 1006.6
20260505000035 23 182 1.6 6.4 0.00 0.00 0.00 54 1006.6
20260504234506 23 242 0.0 6.4 0.00 0.00 0.00 54 1006.7
20260504233056 23 157 1.6 8.0 0.00 0.00 0.00 53 1006.8
20260504231535 24 277 1.6 11.3 0.00 0.00 0.00 51 1007.0
20260504230014 24 84 0.0 4.8 0.00 0.00 0.00 53 1007.3
20260504224552 24 265 0.0 11.3 0.00 0.00 0.00 50 1007.4
20260504223035 25 288 3.2 11.3 0.00 0.00 0.00 49 1007.4
20260504221517 25 274 3.2 14.5 0.00 0.00 0.00 48 1007.4
20260504220006 25 67 4.8 9.7 0.00 0.00 0.00 49 1007.7
20260504214550 25 175 0.0 9.7 0.00 0.00 0.00 50 1007.8
20260504213025 25 128 1.6 8.0 0.00 0.00 0.00 49 1007.7
20260504211513 25 242 3.2 9.7 0.00 0.00 0.00 48 1008.0
20260504210051 25 238 3.2 11.3 0.00 0.00 0.00 46 1008.1
20260504204527 26 306 3.2 11.3 0.00 0.00 0.00 46 1008.3
20260504203008 26 240 4.8 11.3 0.00 0.00 0.00 45 1008.4
20260504201552 25 323 3.2 11.3 0.00 0.00 0.00 47 1008.8
20260504200035 26 282 4.8 12.9 0.00 0.00 0.00 46 1009.1
20260504194513 25 5 3.2 12.9 0.00 0.00 0.00 46 1009.3
20260504193051 25 289 6.4 14.5 0.00 0.00 0.00 46 1009.4
20260504191531 25 289 4.8 12.9 0.00 0.00 0.00 47 1009.8
20260504190016 25 254 4.8 14.5 0.00 0.00 0.00 45 1009.8
20260504184553 25 303 4.8 14.5 0.00 0.00 0.00 46 1009.8
20260504183035 25 24 1.6 9.7 0.00 0.00 0.00 48 1010.2
20260504181517 25 45 3.2 14.5 0.00 0.00 0.00 47 1010.0
20260504180057 25 286 4.8 11.3 0.00 0.00 0.00 46 1010.2
20260504174535 25 265 3.2 11.3 0.00 0.00 0.00 46 1010.3
20260504173011 25 272 4.8 14.5 0.00 0.00 0.00 46 1010.6
20260504171549 24 295 3.2 17.7 0.00 0.00 0.00 48 1010.8
20260504081512 16 274 0.0 0.0 0.00 0.00 0.00 74 1012.2
20260504050014 20 162 0.0 0.0 0.00 0.00 0.00 61 1013.3
20260504044549 20 156 0.0 3.2 0.00 0.00 0.00 61 1013.3
20260504043029 20 277 0.0 3.2 0.00 0.00 0.00 61 1013.3
20260504041513 20 293 0.0 3.2 0.00 0.00 0.00 60 1013.4
20260504040057 20 266 0.0 4.8 0.00 0.00 0.00 60 1013.4